Location: Mauries
(43.6188°N, 0.3322°W)
Time: 04:23:44
(UTC+00:00)

CUTE 1.7 + AOD 2 - Visible Passes

Search period start: 14 May 2026 00:00
Search period end: 24 May 2026 00:00
Orbit: 532 x 546 km, 97.8° (Epoch: 13 May)

Date Brightness Start Highest point End Pass type
(mag) Time Alt. Az. Time Alt. Az. Time Alt. Az.
20 May ? 03:52:59 10° NE 03:56:10 24° E 03:59:20 10° SSE visible
21 May ? 03:45:29 10° NE 03:48:22 20° E 03:51:14 10° SE visible
22 May ? 03:38:04 10° NE 03:40:32 16° E 03:43:00 10° SE visible
23 May ? 03:30:47 10° ENE 03:32:42 13° E 03:34:35 10° ESE visible
